{"data":{"norad_id":53259,"epoch":"2026-09-20T01:51:58.502016Z","epoch_age_seconds":111817,"freshness":"FRESH","line1":"1 53259U 22086T   26263.07776044  .00000395  00000+0  24488-4 0  9992","line2":"2 53259  53.1625  35.7700 0000881  92.0819 268.0284 15.31700734230484","mean_motion":15.31700734,"eccentricity":8.81e-5,"inclination_deg":53.1625,"raan_deg":35.77,"arg_perigee_deg":92.0819,"mean_anomaly_deg":268.0284,"bstar":2.4488e-5,"rev_number":23048,"period_min":94.013142909416,"perigee_km":470.1344213402,"apogee_km":471.34119308123,"semimajor_km":6848.8748072107,"source":"CELESTRAK","updated_at":"2026-09-20T09:00:40.215835Z"}}